[Date Prev][Date Next][Thread Prev][Thread Next] - [Date Index][Thread Index][Author Index]
2 Line ISS Keps 5-6
- Subject: [sarex] 2 Line ISS Keps 5-6
- From: "Dave Larsen PhD" <doc@xxxxxxxxxxx>
- Date: Mon, 6 May 2002 07:04:18 -0700
ISS
1 25544U 98067A 02126.50210672 .00006197 00000-0 84589-4 0 4035
2 25544 51.6333 262.4945 0008357 32.5052 83.5492 15.58948972197528
----
Via the sarex mailing list at AMSAT.ORG courtesy of AMSAT-NA.
To unsubscribe, send "unsubscribe sarex" to Majordomo@amsat.org
AMSAT Home